Location: Poughquag
(41.6090°N, 73.6820°W)
Time: 18:23:56
(UTC-05:00)

Envisat - Pass Details

Date: 22 January 2020
Orbit: 764 x 766 km, 98.1° (Epoch: 25 February)

Event Time Altitude Azimuth Distance (km) Brightness Sun altitude
Rises 19:19:52 0° 221° (SW) 3,221 6.9 -26.4°
Reaches altitude 10° 19:24:14 10° 257° (WSW) 2,303 6.4 -27.2°
Maximum altitude 19:25:31 11° 272° (W) 2,242 6.4 -27.5°
Drops below altitude 10° 19:26:49 10° 287° (WNW) 2,307 6.3 -27.7°
Sets 19:31:14 0° 323° (NW) 3,241 6.7 -28.5°
